Location: DARK SKY Beskydy - Park tmavé oblohy, www.darkskybeskydy.cz
(49.4926°N, 18.5016°E)
Time: 15:23:41
(UTC+01:00)

Vanguard 1 - Pass Details

Date: 21 November 2025
Orbit: 650 x 3821 km, 34.2° (Epoch: 07 December)

Event Time Altitude Azimuth Distance (km) Brightness Sun altitude
Rises 17:42:15 0° 258° (WSW) 6,804 16.2 -16.8°
Reaches altitude 10° 17:46:27 10° 254° (WSW) 6,108 15.4 -17.4°
Maximum altitude 18:06:14 52° 187° (S) 4,391 13.3 -20.6°
Enters shadow 18:24:59 15° 122° (ESE) 6,075 13.6 -23.6°
